sat.trackr.live / text

‹ back to catalog

STARLINK-35902

NORAD 66626 · 2025-271K

PAYLOAD ACTIVE UNKNOWN

§ Identity

Operator
Country
US
Launch date
2025-11-23
Launch site
AFWTR
Launch vehicle
Mass (kg)
RCS (m²)

Purposes: comms

External: N2YO · Heavens-Above · Gunter

§ Orbital elements

Epoch: 2026-05-24T23:34:29.144064Z

Period
94.11 min
Inclination
53.1594°
Eccentricity
0.0001900
Mean motion
15.30192085 rev/d
Perigee alt
473.9 km
Apogee alt
476.5 km
Semi-major
6,853.4 km
B*
4.5597e-5
RAAN
145.8308°
Arg perigee
100.1751°
Mean anomaly
259.9464°
Rev number
2,924

§ Raw data

STARLINK-359021 66626U 25271K   26144.98228176  .00000991  00000+0  45597-4 0  99952 66626  53.1594 145.8308 0001900 100.1751 259.9464 15.30192085 29249

JSON: /api/v1/satellites/66626 · /tle

For live sub-satellite position, see the globe view (requires WebGL).

§ Visibility from observer

Set your observer location to see the next 7 days of passes ≥ 10°. The values pass through the URL so the page stays shareable.

No JS? Fill the form by hand. The geolocation button needs JavaScript.